Regional Weather Roundup
Issued by NWS

Home | Current Version | Previous Version | Text Only | Print | Product List | Glossary On
Versions: 1 2 3 4 5 6 7 8 9 10 11 12 13 14 15 16 17 18 19 20 21 22 23 24 25 26 27 28 29 30 31 32 33 34 35 36 37 38 39 40 41 42 43 44 45 46 47 48 49 50
000
ASCA42 TJSJ 250510
RWRPR
PUERTO RICO/U.S. VIRGIN ISLANDS HOURLY WEATHER ROUNDUP
NATIONAL WEATHER SERVICE SAN JUAN PR
100 AM AST THU MAY 25 2017

PRZ001>002-007>008-010-250600-
PUERTO RICO

CITY           SKY/WX    TMP DP  RH WIND       PRES   REMARKS
SAN JUAN LMM   PTCLDY    79  73  83 E5        30.08S
PONCE          PTCLDY    79  72  78 NE6       30.10S
AGUADILLA      CLEAR     75  70  83 E5        30.08F
CEIBA          CLOUDY    81  75  83 E7        30.10F
$$

VIZ001>002-250600-
U.S. VIRGIN ISLANDS

CITY           SKY/WX    TMP DP  RH WIND       PRES   REMARKS
CHARLOTTE AMA  CLOUDY    82  75  78 E7        30.07F
CHRISTIANSTED  CLOUDY    79  75  89 E9        30.07F
$$

HOURLY WEATHER ROUNDUP FOR THE NEWS MEDIA

CITY           SKY/WX    TMP DP  RH WIND       PRES   REMARKS
ORLANDO        CLOUDY    75  72  90 SW13      29.75F
NEW YORK       CLOUDY    58  54  86 E12       29.81F
NEWARK         CLOUDY    58  52  80 E10       29.80F
CHICAGO        CLOUDY    54  49  83 N12       29.56S
HARTFORD         N/A    N/A N/A N/A MISG      29.86S
BOSTON         PTCLDY    55  52  89 E3        29.89R
DALLAS         CLEAR     68  48  48 SE10      29.71S
PHILADELPHIA   CLOUDY    58  52  80 E12       29.76F
LOS ANGELES    CLOUDY    58  53  84 W12       29.84R
WASHINGTON DC  LGT RAIN  57  54  89 E13G23    29.62F


USA.gov is the U.S. government's official web portal to all federal, state and local government web resources and services.